KOMPSAT 5

导读

KOMPSAT 5是韩国(KR)于2013年8月22日发射的多用途实用卫星,属于韩国阿里郎卫星系列。该卫星搭载合成孔径雷达,具备全天候全天时对地观测能力,可提供高分辨率遥感图像,服务于地理测绘、海洋监测、灾害监测与环境保护等多个领域,是韩国自主航天遥感体系的重要组成部分。

Basic Information
目录编号:
39227
目录名称:
KOMPSAT 5
国际标识:
2013-042A
轨道中心:
EARTH
卫星名称:
KOMPSAT 5
卫星全名:
--
卫星状态:
在轨 (已飞行4772 天)
发射日期:
2013-08-22 UTC
国别 :
韩国 (KR)
星等 :
--
This satellite is enrolled in the Space Conjunction Data Service (SCDS) and the current flight risk assessment level is: No High Risk
Orbit Information
数据来源 国际轨道数据 AOE轨道数据
星历时间 2026-09-16T00:24:54+0800
6小时前
查看轨道信息
2026-09-12T22:00:00+0800
3天前
查看轨道信息
半长轴 6931.279km 6931.049km
偏心率 0.0003252 0.0003059
轨道倾角 97.621° 97.621°
近地点辐角 158.357° 160.744°
升交点赤经 84.127° 81.068°
平近点角 201.780° 336.012°
近地点 550.887km 550.791km
远地点 555.397km 555.033km
周期 95.715分钟 95.710分钟
每日圈数 15.044672 15.04542
Detailed Information
使用方式:
暂无
2D Orbit Map
3D Orbit Map
Orbit Altitude Analysis Chart
Orbit Inclination Analysis Chart
Orbit Comprehensive Analysis Chart
View Comprehensive Chart
Miss Distance Evolution Trend with All Objects Subscribe to Flight Safety Assessment
Collision Probability Evolution Trend with All Objects Subscribe to Flight Safety Assessment